Weather History for PAFE - January, 2013

Change the Weather History Date:

Sunday, January 20, 2013

  Actual Average Record
Temperature  
Mean Temperature 38 °F -  
Max Temperature 42 °F 33 °F 46 °F (2015)
Min Temperature 33 °F 27 °F 12 °F (1999)
Degree Days  
Heating Degree Days 28    
Moisture  
Dew Point 33 °F    
Average Humidity 80    
Maximum Humidity 87    
Minimum Humidity 70    
Precipitation  
Precipitation 0.00 in - - ()
Sea Level Pressure  
Sea Level Pressure 30.26 in    
Wind  
Wind Speed 4 mph (ESE)    
Max Wind Speed 13 mph    
Max Gust Speed 20 mph    
Visibility 10 miles    
Events      
Averages and records for this station are not official NWS values.
T = Trace of Precipitation, MM = Missing Value Source: NWS Daily Summary

Daily Weather History Graph

Daily Weather History Graph

Search for Another Location

Airport or City:

Trip Planner

Search our weather history database for the weather conditions in past years. The results will help you decide how hot, cold, wet, or windy it might be!

Date:

Astronomy

Jan. 20, 2013 Rise Set
Actual Time 8:14 AM AKST 3:59 PM AKST
Civil Twilight 7:29 AM AKST 4:44 PM AKST
Nautical Twilight 6:42 AM AKST 5:32 PM AKST
Astronomical Twilight 5:56 AM AKST 6:17 PM AKST
Moon 11:07 AM AKST (1/20) 2:48 AM AKST (1/20)
Length of Visible Light 9h 14m
Length of Day
7h 44m
Waxing Gibbous, 67% of the Moon is Illuminated
Jan 20
Waxing Gibbous
Jan 26
Full
Feb 3
Last Quarter
Feb 9
New
Feb 17
First Quarter

Hourly Weather History & Observations

Time (AKST) Temp. Windchill Dew Point Humidity Pressure Visibility Wind Dir Wind Speed Gust Speed Precip Events Conditions
12:16 AM 35.6 °F 32.8 °F 26.6 °F 70% 30.34 in 10.0 mi ESE 3.5 mph - N/A   Overcast
12:36 AM 35.6 °F 29.9 °F 26.6 °F 70% 30.33 in 10.0 mi East 6.9 mph - N/A   Overcast
12:56 AM 35.6 °F 29.9 °F 26.6 °F 70% 30.34 in 10.0 mi East 6.9 mph - N/A   Overcast
1:16 AM 35.6 °F 29.9 °F 26.6 °F 70% 30.32 in 10.0 mi ENE 6.9 mph - N/A   Overcast
1:36 AM 35.6 °F 28.6 °F 26.6 °F 70% 30.32 in 10.0 mi NE 9.2 mph - N/A   Overcast
1:56 AM 35.6 °F 31.7 °F 26.6 °F 70% 30.33 in 10.0 mi East 4.6 mph - N/A   Overcast
2:16 AM 35.6 °F 32.8 °F 28.4 °F 75% 30.34 in 10.0 mi East 3.5 mph - N/A   Overcast
2:36 AM 35.6 °F 31.7 °F 28.4 °F 75% 30.32 in 10.0 mi East 4.6 mph - N/A   Overcast
2:56 AM 35.6 °F 31.7 °F 28.4 °F 75% 30.30 in 10.0 mi East 4.6 mph - N/A   Overcast
3:36 AM 35.6 °F - 28.4 °F 75% 30.31 in 10.0 mi Calm Calm - N/A   Overcast
3:56 AM 35.6 °F - 30.2 °F 81% 30.30 in 10.0 mi Calm Calm - N/A   Overcast
4:16 AM 35.6 °F - 30.2 °F 81% 30.30 in 10.0 mi Calm Calm - N/A   Overcast
4:36 AM 35.6 °F - 28.4 °F 75% 30.30 in 10.0 mi Calm Calm - N/A   Overcast
4:56 AM 33.8 °F - 28.4 °F 81% 30.29 in 10.0 mi Calm Calm - N/A   Overcast
5:16 AM 33.8 °F 30.8 °F 28.4 °F 81% 30.28 in 10.0 mi ESE 3.5 mph - N/A   Overcast
5:36 AM 33.8 °F - 28.4 °F 81% 30.28 in 10.0 mi Calm Calm - N/A   Overcast
5:56 AM 35.6 °F - 30.2 °F 81% 30.29 in 10.0 mi Calm Calm - N/A   Overcast
6:16 AM 33.8 °F 30.8 °F 30.2 °F 87% 30.28 in 10.0 mi East 3.5 mph - N/A   Overcast
6:36 AM 35.6 °F - 28.4 °F 75% 30.27 in 10.0 mi Calm Calm - N/A   Overcast
6:56 AM 35.6 °F - 30.2 °F 81% 30.28 in 10.0 mi Calm Calm - N/A   Overcast
7:16 AM 33.8 °F - 30.2 °F 87% 30.28 in 10.0 mi Calm Calm - N/A   Overcast
7:36 AM 33.8 °F - 30.2 °F 87% 30.27 in 10.0 mi Calm Calm - N/A   Overcast
7:56 AM 33.8 °F - 30.2 °F 87% 30.28 in 10.0 mi Calm Calm - N/A   Overcast
8:16 AM 33.8 °F - 30.2 °F 87% 30.28 in 10.0 mi Calm Calm - N/A   Overcast
8:36 AM 33.8 °F - 30.2 °F 87% 30.29 in 10.0 mi Calm Calm - N/A   Overcast
8:56 AM 35.6 °F - 30.2 °F 81% 30.29 in 10.0 mi Calm Calm - N/A   Overcast
9:16 AM 35.6 °F - 30.2 °F 81% 30.29 in 10.0 mi Calm Calm - N/A   Overcast
9:36 AM 35.6 °F - 30.2 °F 81% 30.30 in 10.0 mi Calm Calm - N/A   Overcast
9:56 AM 35.6 °F - 30.2 °F 81% 30.30 in 10.0 mi Calm Calm - N/A   Overcast
10:16 AM 35.6 °F - 30.2 °F 81% 30.29 in 10.0 mi Calm Calm - N/A   Overcast
10:36 AM 37.4 °F - 32.0 °F 81% 30.29 in 10.0 mi Calm Calm - N/A   Overcast
10:56 AM 37.4 °F - 32.0 °F 81% 30.28 in 10.0 mi Calm Calm - N/A   Overcast
11:16 AM 39.2 °F - 33.8 °F 81% 30.28 in 10.0 mi Calm Calm - N/A   Overcast
11:36 AM 39.2 °F - 33.8 °F 81% 30.28 in 9.0 mi Calm Calm - N/A   Overcast
11:56 AM 39.2 °F 37.0 °F 33.8 °F 81% 30.27 in 10.0 mi SE 3.5 mph - N/A   Overcast
12:16 PM 39.2 °F 37.0 °F 33.8 °F 81% 30.26 in 10.0 mi SE 3.5 mph - N/A   Overcast
12:36 PM 39.2 °F 37.0 °F 33.8 °F 81% 30.26 in 10.0 mi SE 3.5 mph - N/A   Overcast
12:56 PM 39.2 °F 35.9 °F 35.6 °F 87% 30.26 in 10.0 mi SE 4.6 mph - N/A   Overcast
1:16 PM 41.0 °F 38.0 °F 35.6 °F 81% 30.25 in 10.0 mi ESE 4.6 mph - N/A   Overcast
1:36 PM 41.0 °F 39.0 °F 35.6 °F 81% 30.24 in 10.0 mi SE 3.5 mph - N/A   Overcast
1:56 PM 41.0 °F 37.1 °F 35.6 °F 81% 30.23 in 10.0 mi ESE 5.8 mph - N/A   Overcast
2:16 PM 41.0 °F 35.8 °F 35.6 °F 81% 30.23 in 10.0 mi SE 8.1 mph - N/A   Overcast
2:36 PM 42.8 °F 38.6 °F 35.6 °F 76% 30.24 in 10.0 mi SE 6.9 mph - N/A   Overcast
3:16 PM 41.0 °F - 35.6 °F 81% 30.22 in 10.0 mi Calm Calm - N/A   Overcast
3:36 PM 41.0 °F - 35.6 °F 81% 30.23 in 10.0 mi Calm Calm - N/A   Overcast
3:56 PM 41.0 °F 37.1 °F 35.6 °F 81% 30.22 in 10.0 mi SE 5.8 mph - N/A   Overcast
4:16 PM 41.0 °F 35.2 °F 35.6 °F 81% 30.22 in 10.0 mi SE 9.2 mph - N/A   Overcast
4:36 PM 42.8 °F 37.5 °F 35.6 °F 76% 30.23 in 10.0 mi SE 9.2 mph - N/A   Overcast
4:56 PM 42.8 °F 38.0 °F 35.6 °F 76% 30.22 in 10.0 mi SE 8.1 mph - N/A   Overcast
5:16 PM 42.8 °F 37.5 °F 35.6 °F 76% 30.22 in 10.0 mi SSE 9.2 mph 16.1 mph N/A   Overcast
5:36 PM 42.8 °F 37.5 °F 35.6 °F 76% 30.21 in 10.0 mi SE 9.2 mph - N/A   Overcast
5:56 PM 42.8 °F 37.0 °F 35.6 °F 76% 30.21 in 10.0 mi SE 10.4 mph - N/A   Overcast
6:16 PM 42.8 °F 37.0 °F 35.6 °F 76% 30.20 in 10.0 mi SE 10.4 mph - N/A   Overcast
6:36 PM 42.8 °F 37.5 °F 35.6 °F 76% 30.21 in 10.0 mi SE 9.2 mph - N/A   Overcast
6:56 PM 42.8 °F 37.5 °F 35.6 °F 76% 30.21 in 10.0 mi SE 9.2 mph - N/A   Overcast
7:16 PM 41.0 °F 35.2 °F 35.6 °F 81% 30.20 in 10.0 mi ESE 9.2 mph - N/A   Overcast
7:36 PM 41.0 °F 35.2 °F 35.6 °F 81% 30.19 in 10.0 mi ESE 9.2 mph 16.1 mph N/A   Overcast
7:56 PM 41.0 °F 34.3 °F 35.6 °F 81% 30.21 in 10.0 mi ESE 11.5 mph 16.1 mph N/A   Overcast
8:16 PM 41.0 °F 34.7 °F 35.6 °F 81% 30.20 in 10.0 mi ESE 10.4 mph 16.1 mph N/A   Overcast
8:36 PM 41.0 °F 34.7 °F 35.6 °F 81% 30.20 in 10.0 mi ESE 10.4 mph - N/A   Overcast
8:56 PM 41.0 °F 34.3 °F 35.6 °F 81% 30.20 in 10.0 mi ESE 11.5 mph - N/A   Overcast
9:16 PM 41.0 °F 35.2 °F 35.6 °F 81% 30.20 in 10.0 mi ESE 9.2 mph 16.1 mph N/A   Overcast
9:36 PM 41.0 °F 33.9 °F 35.6 °F 81% 30.18 in 10.0 mi ESE 12.7 mph 19.6 mph N/A   Overcast
9:56 PM 41.0 °F 34.7 °F 35.6 °F 81% 30.19 in 10.0 mi ESE 10.4 mph 18.4 mph N/A   Overcast
10:16 PM 41.0 °F 35.8 °F 35.6 °F 81% 30.20 in 10.0 mi ESE 8.1 mph 17.3 mph N/A   Overcast
10:36 PM 41.0 °F 36.4 °F 35.6 °F 81% 30.19 in 10.0 mi East 6.9 mph - N/A   Overcast
10:56 PM 41.0 °F 35.2 °F 35.6 °F 81% 30.19 in 10.0 mi ESE 9.2 mph 17.3 mph N/A   Overcast
11:16 PM 41.0 °F 34.7 °F 35.6 °F 81% 30.20 in 10.0 mi ESE 10.4 mph 16.1 mph N/A   Overcast
11:36 PM 41.0 °F 34.7 °F 35.6 °F 81% 30.19 in 10.0 mi ESE 10.4 mph 17.3 mph N/A   Overcast
11:56 PM 41.0 °F 35.2 °F 35.6 °F 81% 30.19 in 10.0 mi ESE 9.2 mph - N/A   Overcast